When you browse on this site, cookies collect data to enhance your experience and personalize the content and advertising you see.
Visit our Privacy Policy to learn more. By continuing to use the site, you agree to this use of cookies and data.
  • In Schweiz
  • Länderverzeichnis
  • Für 7 Tage
  • Wassertemperatur
  • Wetterkarte
  • Widgets
  • user-avatar
    Anmelden

    Stündliche Wetter Bolshak

    Heute, 15 September, Sonntag

    Zeit Temperatur Niederschläge Wind Luftdruck Luftfeuchtigkeit
    00:00 +9°C° 0 mm 3 m/S 751 mmHg 76%
    01:00 +9°C° 0 mm 3 m/S 751 mmHg 78%
    02:00 +8°C° 0 mm 3 m/S 751 mmHg 80%
    03:00 +8°C° 0 mm 3 m/S 750 mmHg 82%
    04:00 +8°C° 0 mm 3 m/S 750 mmHg 83%
    05:00 +8°C° 0 mm 3 m/S 751 mmHg 84%
    06:00 +8°C° 0 mm 3 m/S 751 mmHg 84%
    07:00 +9°C° 0.2 mm 3 m/S 751 mmHg 82%
    08:00 +10°C° 0.2 mm 4 m/S 751 mmHg 80%
    09:00 +11°C° 0.2 mm 4 m/S 751 mmHg 77%
    10:00 +12°C° 0 mm 5 m/S 750 mmHg 70%
    11:00 +13°C° 0 mm 5 m/S 750 mmHg 62%
    12:00 +14°C° 0 mm 5 m/S 750 mmHg 55%
    13:00 +15°C° 0 mm 5 m/S 750 mmHg 52%
    14:00 +15°C° 0 mm 6 m/S 750 mmHg 49%
    15:00 +15°C° 0 mm 6 m/S 750 mmHg 46%
    16:00 +14°C° 0 mm 5 m/S 749 mmHg 50%
    17:00 +14°C° 0 mm 4 m/S 749 mmHg 53%
    18:00 +13°C° 0 mm 4 m/S 748 mmHg 57%
    19:00 +12°C° 0 mm 4 m/S 748 mmHg 56%
    20:00 +12°C° 0 mm 4 m/S 748 mmHg 56%
    21:00 +12°C° 0 mm 5 m/S 747 mmHg 55%
    22:00 +12°C° 0.1 mm 5 m/S 747 mmHg 59%
    23:00 +10°C° 0.1 mm 6 m/S 746 mmHg 64%

    Morgen, 16 September, Montag

    Zeit Temperatur Niederschläge Wind Luftdruck Luftfeuchtigkeit
    00:00 +10°C° 0.1 mm 6 m/S 746 mmHg 68%
    01:00 +10°C° 0.5 mm 7 m/S 745 mmHg 73%
    02:00 +10°C° 0.5 mm 7 m/S 745 mmHg 78%
    03:00 +10°C° 0.5 mm 7 m/S 744 mmHg 84%
    04:00 +10°C° 0.1 mm 7 m/S 743 mmHg 81%
    05:00 +10°C° 0.1 mm 7 m/S 743 mmHg 79%
    06:00 +10°C° 0.1 mm 7 m/S 742 mmHg 76%
    07:00 +10°C° 0.2 mm 7 m/S 741 mmHg 77%
    08:00 +11°C° 0.2 mm 7 m/S 741 mmHg 77%
    09:00 +11°C° 0.2 mm 7 m/S 741 mmHg 77%
    10:00 +11°C° 0.1 mm 8 m/S 740 mmHg 75%
    11:00 +12°C° 0.1 mm 9 m/S 740 mmHg 73%
    12:00 +12°C° 0.1 mm 9 m/S 740 mmHg 71%
    13:00 +13°C° 0.2 mm 9 m/S 740 mmHg 70%
    14:00 +13°C° 0.2 mm 9 m/S 739 mmHg 68%
    15:00 +13°C° 0.2 mm 9 m/S 739 mmHg 67%
    16:00 +13°C° 0.1 mm 8 m/S 739 mmHg 68%
    17:00 +12°C° 0.1 mm 7 m/S 739 mmHg 69%
    18:00 +13°C° 0.1 mm 5 m/S 739 mmHg 69%
    19:00 +12°C° 0 mm 5 m/S 739 mmHg 70%
    20:00 +10°C° 0 mm 5 m/S 739 mmHg 72%
    21:00 +10°C° 0 mm 5 m/S 740 mmHg 73%
    22:00 +9°C° 0 mm 5 m/S 739 mmHg 73%
    23:00 +9°C° 0 mm 6 m/S 739 mmHg 74%

    übermorgen, 17 September, Dienstag

    Zeit Temperatur Niederschläge Wind Luftdruck Luftfeuchtigkeit
    00:00 +9°C° 0 mm 6 m/S 739 mmHg 74%
    01:00 +9°C° 0 mm 6 m/S 739 mmHg 74%
    02:00 +9°C° 0 mm 6 m/S 739 mmHg 73%
    03:00 +9°C° 0 mm 6 m/S 739 mmHg 73%
    04:00 +9°C° 0 mm 6 m/S 738 mmHg 76%
    05:00 +8°C° 0 mm 5 m/S 738 mmHg 79%
    06:00 +7°C° 0 mm 5 m/S 738 mmHg 82%
    07:00 +8°C° 0 mm 6 m/S 738 mmHg 76%
    08:00 +9°C° 0 mm 7 m/S 738 mmHg 70%
    09:00 +10°C° 0 mm 7 m/S 738 mmHg 64%
    10:00 +11°C° 0 mm 7 m/S 738 mmHg 61%
    11:00 +11°C° 0 mm 7 m/S 738 mmHg 58%
    12:00 +12°C° 0 mm 7 m/S 738 mmHg 55%
    13:00 +12°C° 0 mm 7 m/S 738 mmHg 54%
    14:00 +12°C° 0 mm 7 m/S 738 mmHg 53%
    15:00 +12°C° 0 mm 7 m/S 738 mmHg 52%
    16:00 +13°C° 0 mm 6 m/S 738 mmHg 55%
    17:00 +12°C° 0 mm 5 m/S 738 mmHg 59%
    18:00 +11°C° 0 mm 4 m/S 737 mmHg 62%
    19:00 +11°C° 0 mm 4 m/S 737 mmHg 65%
    20:00 +10°C° 0 mm 4 m/S 737 mmHg 69%
    21:00 +10°C° 0 mm 4 m/S 738 mmHg 72%
    22:00 +8°C° 0 mm 4 m/S 737 mmHg 74%
    23:00 +8°C° 0 mm 4 m/S 737 mmHg 77%

    18 September, Mittwoch

    Zeit Temperatur Niederschläge Wind Luftdruck Luftfeuchtigkeit
    00:00 +7°C° 0 mm 4 m/S 737 mmHg 80%
    01:00 +7°C° 0 mm 4 m/S 737 mmHg 83%
    02:00 +6°C° 0 mm 4 m/S 737 mmHg 85%
    03:00 +6°C° 0 mm 4 m/S 737 mmHg 88%
    04:00 +5°C° 0 mm 4 m/S 737 mmHg 89%
    05:00 +5°C° 0 mm 4 m/S 737 mmHg 89%
    06:00 +5°C° 0 mm 3 m/S 736 mmHg 90%
    07:00 +6°C° 0.1 mm 4 m/S 736 mmHg 85%
    08:00 +7°C° 0.1 mm 4 m/S 736 mmHg 80%
    09:00 +8°C° 0.1 mm 5 m/S 736 mmHg 75%
    10:00 +8°C° 0.7 mm 5 m/S 736 mmHg 78%
    11:00 +8°C° 0.7 mm 5 m/S 736 mmHg 82%
    12:00 +8°C° 0.7 mm 5 m/S 736 mmHg 86%
    13:00 +8°C° 0.5 mm 5 m/S 736 mmHg 84%
    14:00 +8°C° 0.5 mm 6 m/S 736 mmHg 83%
    15:00 +8°C° 0.5 mm 7 m/S 736 mmHg 81%
    16:00 +7°C° 0.2 mm 6 m/S 736 mmHg 82%
    17:00 +7°C° 0.2 mm 6 m/S 736 mmHg 82%
    18:00 +7°C° 0.2 mm 5 m/S 736 mmHg 83%
    19:00 +7°C° 0 mm 5 m/S 737 mmHg 85%
    20:00 +7°C° 0 mm 5 m/S 738 mmHg 87%
    21:00 +7°C° 0 mm 5 m/S 738 mmHg 89%
    22:00 +6°C° 0 mm 5 m/S 739 mmHg 90%
    23:00 +6°C° 0 mm 5 m/S 740 mmHg 91%

    19 September, Donnerstag

    Zeit Temperatur Niederschläge Wind Luftdruck Luftfeuchtigkeit
    00:00 +6°C° 0 mm 5 m/S 740 mmHg 92%
    01:00 +6°C° 0 mm 5 m/S 741 mmHg 92%
    02:00 +5°C° 0 mm 5 m/S 742 mmHg 93%
    03:00 +5°C° 0 mm 5 m/S 742 mmHg 94%
    04:00 +5°C° 0 mm 4 m/S 743 mmHg 94%
    05:00 +5°C° 0 mm 4 m/S 743 mmHg 94%
    06:00 +5°C° 0 mm 4 m/S 744 mmHg 94%
    07:00 +5°C° 0 mm 4 m/S 744 mmHg 91%
    08:00 +6°C° 0 mm 4 m/S 745 mmHg 88%
    09:00 +7°C° 0 mm 4 m/S 745 mmHg 85%
    10:00 +8°C° 0 mm 4 m/S 745 mmHg 81%
    11:00 +8°C° 0 mm 4 m/S 746 mmHg 77%
    12:00 +10°C° 0 mm 4 m/S 746 mmHg 74%
    13:00 +11°C° 0.1 mm 4 m/S 746 mmHg 70%
    14:00 +12°C° 0.1 mm 4 m/S 746 mmHg 65%
    15:00 +12°C° 0.1 mm 3 m/S 745 mmHg 61%
    16:00 +11°C° 0.3 mm 3 m/S 745 mmHg 66%
    17:00 +11°C° 0.3 mm 3 m/S 745 mmHg 71%
    18:00 +10°C° 0.3 mm 2 m/S 745 mmHg 75%
    19:00 +9°C° 0 mm 2 m/S 746 mmHg 78%
    20:00 +8°C° 0 mm 2 m/S 746 mmHg 80%
    21:00 +8°C° 0 mm 1 m/S 746 mmHg 82%
    22:00 +8°C° 0 mm 1 m/S 746 mmHg 82%
    23:00 +8°C° 0 mm 1 m/S 746 mmHg 82%

    20 September, Freitag

    Zeit Temperatur Niederschläge Wind Luftdruck Luftfeuchtigkeit
    00:00 +7°C° 0 mm 0 m/S 747 mmHg 82%
    01:00 +8°C° 0 mm 1 m/S 747 mmHg 82%
    02:00 +7°C° 0 mm 2 m/S 747 mmHg 83%
    03:00 +7°C° 0 mm 2 m/S 747 mmHg 83%
    04:00 +6°C° 0.1 mm 2 m/S 747 mmHg 85%
    05:00 +6°C° 0.1 mm 2 m/S 747 mmHg 86%
    06:00 +6°C° 0.1 mm 2 m/S 748 mmHg 88%
    07:00 +6°C° 0 mm 2 m/S 748 mmHg 84%
    08:00 +7°C° 0 mm 2 m/S 748 mmHg 79%
    09:00 +7°C° 0 mm 2 m/S 749 mmHg 75%
    10:00 +8°C° 0 mm 2 m/S 749 mmHg 69%
    11:00 +9°C° 0 mm 2 m/S 749 mmHg 62%
    12:00 +10°C° 0 mm 2 m/S 749 mmHg 55%
    13:00 +10°C° 0 mm 2 m/S 749 mmHg 54%
    14:00 +10°C° 0 mm 2 m/S 749 mmHg 53%
    15:00 +10°C° 0 mm 3 m/S 749 mmHg 51%
    16:00 +10°C° 0 mm 2 m/S 749 mmHg 53%
    17:00 +9°C° 0 mm 2 m/S 750 mmHg 55%
    18:00 +9°C° 0 mm 2 m/S 750 mmHg 57%
    19:00 +8°C° 0 mm 2 m/S 750 mmHg 59%
    20:00 +8°C° 0 mm 1 m/S 750 mmHg 60%
    21:00 +7°C° 0 mm 1 m/S 750 mmHg 62%
    22:00 +6°C° 0 mm 1 m/S 750 mmHg 63%
    23:00 +6°C° 0 mm 1 m/S 750 mmHg 64%
    Mehr zeigen